Probability
0 0 0 0 0 0 0 0 0 0 0 0 0 0 0 0 0 0 0 0 0 0 0 0 0 0 0 0 0 0 0 0 0 1 1 1 0 0 0 0 0 0 0 0
0 0 0 0 0 0 0 0 0 0 0 0 0 0 0 0 0 0 0 0 0 0 0 0 0 0 0 0 0 0 0 0 0 0 0 0 0 0 0 0 0 0 0 0
0 0 0 0 0 0 0 0 0 0 0 0 0 0 0 0 0 0 0 0 0 0 0 0 0 0 0 0 0 0 0 0 0 0 0 0 0 0 0 0 0 0 0 0
0 0 0 0 0 0 0 0 0 0 0 0 0 0 0 0 0 0 0 0 0 0 0 0 0 0 0 0 0 0 0 0 0 0 0 0 0 0 0 0 0 0 0 0
0 0 0 0 0 0 0 0 0 0 0 0 0 0 0 0 0 0 0 0 0 0 0 0 0 0 0 0 0 0 0 0 0 0 0 0 0 0 0 0 0 0 0 0
0 0 0 0 0 0 0 0 0 0 0 0 0 0 0 0 0 0 0 0 0 0 0 0 0 0 0 0 0 0 0 0 0 0 0 0 0 0 0 0 0 0 0 0
0 0 0 0 0 0 0 0 0 0 0 0 0 0 0 0 0 0 0 0 0 0 0 0 0 0 0 0 0 0 0 0 0 0 0 0 0 0 0 0 0 0 0 0
0 0 0 0 0 0 0 0 0 0 0 0 0 0 0 0 0 0 0 0 0 0 0 0 0 0 0 0 0 0 0 0 0 0 0 0 0 0 0 0 0 0 0 0
0 0 0 0 0 0 0 0 0 0 0 0 0 0 0 0 0 0 0 0 0 0 0 0 0 0 0 0 0 0 0 0 0 0 0 0 0 0 0 0 0 0 0 0
0 0 0 0 0 0 0 0 0 0 0 0 0 0 0 0 0 0 0 0 0 0 0 0 0 0 0 0 0 0 0 0 0 0 0 0 0 0 0 0 0 0 0 0
0 0 0 0 0 0 0 0 0 0 0 0 0 0 0 0 0 0 0 0 0 0 0 0 0 0 0 0 0 0 0 0 0 0 0 0 0 0 0 0 0 0 0 0
0 0 0 0 0 0 0 0 0 0 0 0 0 0 0 0 0 0 0 0 0 0 0 0 0 0 0 0 0 0 0 0 0 0 0 0 0 0 0 0 0 0 0 0
0 0 0 0 0 0 0 0 0 0 0 0 0 0 0 0 0 0 0 0 0 0 0 0 0 0 0 0 0 0 0 0 0 0 0 0 0 0 0 0 0 0 0 0
0 0 0 0 0 0 0 0 0 0 0 0 0 0 0 0 0 0 0 0 0 0 0 0 0 0 0 0 0 0 0 0 0 0 0 0 0 0 0 0 0 0 0 0
0 0 0 0 0 0 0 0 0 0 0 0 0 0 0 0 0 0 0 0 0 0 0 0 0 0 0 0 0 0 0 0 0 0 0 0 0 0 0 0 0 0 0 0
0 0 0 0 0 0 0 0 0 0 0 0 0 0 0 0 0 0 0 0 0 0 0 0 0 0 0 0 0 0 0 0 0 0 0 0 0 0 0 0 0 0 0 0
0 0 0 0 0 0 0 0 0 0 0 0 0 0 0 0 0 0 0 0 0 0 0 0 0 0 0 0 0 0 0 0 0 0 0 0 0 0 0 0 0 0 0 0
0 0 0 0 0 0 0 0 0 0 0 0 0 0 0 0 0 0 0 0 0 0 0 0 0 0 0 0 0 0 0 0 0 0 0 0 0 0 0 0 0 0 0 0
0 0 0 0 0 0 0 0 0 0 0 0 0 0 0 0 0 0 0 0 0 0 0 0 0 0 0 0 0 0 0 0 0 0 0 0 0 0 0 0 0 0 0 0
0 0 0 0 0 0 0 0 0 0 0 0 0 0 0 0 0 0 0 0 0 0 0 0 0 0 0 0 0 0 0 0 0 0 0 0 0 0 0 0 0 0 0 0
0 0 0 0 0 0 0 0 0 0 0 0 0 0 0 0 0 0 0 0 0 0 0 0 0 0 0 0 0 0 0 0 0 0 0 0 0 0 0 0 0 0 0 0
0 0 0 0 0 0 0 0 0 0 0 0 0 0 0 0 0 0 0 0 0 0 0 0 0 0 0 0 0 0 0 0 0 0 0 0 0 0 0 0 0 0 0 0
0 0 0 0 0 0 0 0 0 0 0 0 0 0 0 0 0 0 0 0 0 0 0 0 0 0 0 0 0 0 0 0 0 0 0 0 0 0 0 0 0 0 0 0
0 0 0 0 0 0 0 0 0 0 0 0 0 0 0 0 0 0 0 0 0 0 0 0 0 0 0 0 0 0 0 0 0 0 0 0 0 0 0 0 0 0 0 0
0 0 0 0 0 0 0 0 0 0 0 0 0 0 0 0 0 0 0 0 0 0 0 0 0 0 0 0 0 0 0 0 0 0 0 0 0 0 0 0 0 0 0 0
0 0 0 0 0 0 0 0 0 0 0 0 0 0 0 0 0 0 0 0 0 0 0 0 0 0 0 0 0 0 0 0 0 0 0 0 0 0 0 0 0 0 0 0
0 0 0 0 0 0 0 0 0 0 0 0 0 0 0 0 0 0 0 0 0 0 0 0 0 0 0 0 0 0 0 0 0 0 0 0 0 0 0 0 0 0 0 0
Wind_Speed
5 6 4 7 9 7 9 9 9 9 10 11 7 6 6 6 5 4 5 4 4 4 4 4 4 4 4 4 4 4 4 3 3 3 3 3 3 3 2 1 1 1 1 1
5 5 5 8 11 10 10 9 10 11 13 8 6 4 4 5 5 5 5 5 5 4 4 4 4 4 5 4 4 4 3 3 4 4 3 3 3 3 2 2 1 1 1 1
4 5 4 8 9 8 6 6 7 10 10 5 4 5 5 5 4 5 5 5 5 4 4 4 4 3 4 4 4 3 3 3 3 3 3 3 3 3 2 2 2 1 1 0
1 3 6 8 2 4 6 7 7 7 7 5 6 6 5 3 3 5 5 5 5 4 5 4 3 3 3 3 3 3 3 3 3 3 4 3 3 3 3 2 2 2 1 1
1 3 10 9 4 3 5 7 5 7 8 7 5 4 3 3 2 4 4 4 4 4 4 3 3 3 3 3 3 3 3 4 4 4 4 4 3 3 2 2 2 2 1 1
2 3 8 8 3 2 1 6 4 4 5 6 3 4 5 3 3 4 4 3 3 3 3 3 3 2 2 3 3 4 4 4 4 4 4 4 4 3 2 2 2 1 1 1
5 6 11 8 3 2 3 6 3 3 4 3 3 5 6 5 4 4 4 4 3 3 2 3 2 2 3 3 4 4 4 4 4 4 4 4 3 2 2 1 1 1 1 1
5 6 11 4 2 5 6 4 3 3 4 5 6 7 6 6 5 4 4 4 4 3 4 3 1 2 3 4 4 3 3 4 4 4 3 2 2 2 1 1 1 1 1 1
9 10 6 3 5 5 3 5 5 5 6 6 7 8 7 6 5 5 5 5 3 3 4 3 2 2 4 4 3 3 3 4 4 3 3 2 1 1 1 1 1 1 1 1
7 10 9 7 6 6 6 7 7 6 6 6 8 9 8 7 6 6 5 5 4 3 4 4 3 3 4 3 2 2 3 4 3 2 2 2 1 1 1 1 1 2 2 2
10 10 8 8 8 8 8 7 7 7 7 7 8 9 8 7 7 6 6 5 3 4 5 5 4 4 3 3 2 2 3 3 3 2 2 2 2 2 2 2 2 3 2 2
11 9 7 8 6 5 6 8 8 8 9 7 7 9 8 7 6 6 6 5 5 5 5 5 4 5 4 3 2 3 3 3 2 2 2 2 2 2 3 3 3 3 3 2
12 10 9 10 9 8 8 8 8 8 9 9 7 6 7 7 6 5 5 5 5 6 5 5 5 5 5 3 3 4 4 4 3 2 2 2 2 2 2 3 3 3 2 2
9 8 10 10 10 8 8 7 6 6 6 6 6 6 6 6 6 6 6 6 5 4 5 4 5 6 5 3 3 4 4 4 3 3 2 2 2 2 2 2 2 2 2 2
9 8 9 8 7 6 5 5 6 7 6 6 5 5 6 6 7 7 6 4 3 4 5 4 5 6 4 3 3 4 4 3 3 2 2 2 2 2 2 2 2 2 2 2
5 5 6 7 8 7 6 6 7 8 7 6 6 6 6 6 7 7 5 3 4 6 5 5 6 6 3 3 3 3 3 4 3 2 2 2 2 2 2 2 2 2 2 2
4 6 6 7 8 8 7 7 7 8 7 7 7 7 6 5 6 6 6 4 5 6 5 5 6 5 3 3 3 3 2 3 3 2 2 2 2 2 2 2 2 2 2 2
7 7 7 7 7 8 8 7 7 7 7 7 6 6 6 6 7 7 6 4 4 5 6 5 5 4 3 3 3 2 2 2 2 2 2 2 2 2 2 2 2 2 2 2
4 6 6 6 6 6 7 7 7 6 6 5 5 6 7 7 7 6 4 4 4 6 6 4 4 2 2 3 3 2 2 2 2 2 2 2 2 2 2 2 2 2 2 2
4 4 5 5 5 5 6 6 6 6 6 5 5 6 7 7 5 5 4 6 6 5 4 3 3 3 3 3 2 2 2 2 2 2 2 2 2 2 2 2 3 3 2 2
5 5 5 5 6 6 6 5 6 7 6 5 6 7 8 7 5 4 4 6 5 3 3 3 3 2 2 2 2 2 2 2 2 2 2 2 2 2 2 3 3 3 3 3
4 4 5 5 5 7 6 5 5 6 6 5 6 6 6 6 5 4 5 5 4 3 2 2 2 3 3 2 2 2 2 2 2 2 2 2 3 3 3 3 3 2 3 3
4 4 5 5 5 6 6 5 5 5 6 6 6 6 6 6 4 4 5 3 2 3 3 3 3 4 3 2 2 2 2 3 3 3 3 2 2 2 2 3 3 3 3 3
4 4 4 4 3 4 6 6 5 4 5 5 5 5 4 4 3 3 3 3 3 3 2 3 5 4 2 1 2 2 2 2 2 2 2 2 2 2 2 2 2 2 2 3
4 4 3 3 4 4 5 5 5 4 4 4 4 4 3 3 3 3 2 3 3 3 2 3 4 3 2 2 2 2 2 2 2 2 2 2 2 2 2 2 2 3 3 3
3 3 4 4 4 4 3 3 3 3 3 4 4 3 2 2 2 2 2 3 3 3 2 2 2 2 2 2 2 2 2 2 2 2 2 2 2 2 2 3 3 3 3 3
3 3 3 3 3 3 3 3 3 4 3 3 4 3 3 3 2 2 2 2 2 2 2 2 1 1 2 2 2 2 2 2 2 2 2 2 2 2 3 3 3 3 3 3
Wind_Direction
260 272 269 265 264 247 225 221 230 249 255 271 281 288 293 297 304 317 321 321 320 323 330 339 342 341 345 346 352 355 356 356 345 339 340 341 338 334 335 340 327 317 340 330
282 282 280 274 265 252 246 237 240 256 265 263 271 276 284 287 290 296 299 304 310 317 325 323 323 326 331 335 340 348 345 339 341 344 343 340 330 329 331 329 336 358 354 343
279 312 335 277 252 236 229 226 224 243 258 280 292 288 281 280 284 288 292 299 302 305 304 305 305 313 315 319 329 336 332 331 336 333 331 327 326 330 324 320 328 318 306 336
287 14 253 251 258 231 236 252 244 248 264 268 268 272 268 261 266 285 296 300 299 299 298 299 307 315 317 320 321 322 323 325 330 328 321 324 327 324 323 325 313 302 309 307
196 251 276 290 273 208 215 261 248 252 272 278 286 302 285 266 257 264 273 282 285 286 286 297 310 318 322 319 318 317 315 318 321 318 314 315 311 309 309 312 306 300 300 285
191 221 250 261 266 236 180 278 263 251 276 290 312 302 284 305 305 291 292 295 300 304 305 308 312 323 306 297 300 298 305 312 314 310 303 298 294 296 299 289 286 293 300 297
217 238 260 263 266 130 178 256 267 259 277 279 253 250 276 295 291 284 287 292 299 302 296 292 303 310 292 289 286 299 311 310 309 307 301 295 295 294 288 285 289 288 289 322
201 228 256 253 155 193 231 260 273 269 265 265 268 277 283 283 285 290 292 292 294 297 294 296 294 283 280 281 297 312 308 303 302 303 299 298 299 303 301 281 264 281 299 316
205 226 250 215 217 242 252 267 271 268 273 269 277 283 287 285 286 287 285 285 288 285 288 291 283 264 273 289 308 307 302 295 296 299 299 293 280 284 297 284 262 266 260 272
256 261 263 262 261 265 263 261 270 273 276 273 273 280 284 285 289 288 285 281 281 280 281 284 284 275 268 287 295 285 285 287 287 288 295 298 288 264 258 252 246 245 243 252
254 267 282 267 252 258 267 272 276 279 273 269 270 277 278 280 284 286 287 284 274 268 273 278 285 278 275 280 276 271 274 277 278 272 267 274 277 268 267 259 244 244 240 237
246 245 243 263 261 257 261 270 273 279 283 277 268 273 278 277 279 282 283 283 278 273 273 278 281 280 280 277 257 248 260 262 261 263 260 261 277 295 283 276 276 265 254 255
248 261 258 268 272 270 266 272 274 273 272 277 278 271 271 273 278 278 277 274 269 270 270 273 274 274 276 274 259 244 248 255 256 255 251 250 256 267 290 303 289 278 274 280
250 261 270 266 268 276 276 278 283 281 277 273 276 279 275 275 279 278 275 274 271 270 271 270 270 270 272 268 257 252 250 248 245 243 243 239 236 241 248 257 279 295 305 303
250 243 254 273 281 282 282 286 287 283 281 281 276 274 274 274 276 277 279 281 277 271 269 267 267 269 269 256 250 249 247 246 243 240 237 237 233 226 229 241 252 275 317 319
269 270 264 267 271 277 278 276 275 278 280 280 281 277 273 270 273 276 276 269 263 269 268 263 263 266 262 249 249 249 247 246 239 233 231 229 225 218 217 222 235 244 255 275
247 265 261 268 271 274 268 262 263 271 276 274 275 280 281 279 278 276 275 269 258 263 264 258 261 267 256 242 237 243 242 238 232 231 230 225 222 221 216 213 226 241 254 253
227 243 247 252 262 271 277 275 270 270 268 269 277 278 271 264 266 273 279 287 285 281 268 258 258 260 253 244 235 233 232 232 228 228 231 228 224 219 214 215 222 236 262 272
252 258 265 265 264 264 270 273 273 270 271 272 269 268 265 262 261 266 272 271 267 273 274 266 269 260 250 248 239 224 223 228 236 234 228 221 219 214 211 211 218 228 241 246
271 272 274 279 279 267 271 277 280 279 273 265 267 270 272 271 267 264 262 258 251 251 260 263 260 255 253 250 245 223 217 219 227 233 229 225 220 217 215 215 216 224 227 224
270 275 278 282 287 282 274 275 277 278 278 264 258 262 267 273 267 256 257 269 270 248 248 251 250 251 247 238 228 222 218 217 220 223 223 226 225 223 222 220 222 225 224 228
266 270 275 281 285 289 289 281 273 273 276 271 265 263 267 271 266 258 247 251 265 263 263 257 254 249 247 238 226 224 221 219 222 220 222 222 220 225 227 225 227 230 231 232
270 271 277 279 280 287 294 285 273 270 271 271 269 265 263 265 259 255 271 259 248 259 267 258 256 256 255 235 221 223 223 223 224 224 224 223 223 220 220 223 228 229 232 236
269 273 276 281 285 287 289 292 289 281 277 280 274 269 269 275 276 259 260 268 272 279 276 263 265 270 261 230 223 225 228 228 228 225 220 221 220 218 220 225 233 236 236 237
266 271 276 283 280 276 280 293 299 294 292 290 288 284 272 259 263 277 278 271 275 284 281 279 280 281 262 231 228 230 229 226 223 216 214 217 222 224 228 229 232 237 241 242
267 270 267 262 264 277 285 287 288 292 296 297 298 297 297 292 277 278 281 279 279 281 280 279 275 272 255 241 236 235 234 234 232 227 222 225 227 231 237 239 241 244 246 249
277 277 283 288 281 275 279 279 280 285 284 285 292 296 297 300 299 295 293 290 291 291 289 285 279 267 260 252 247 247 245 242 239 239 236 236 236 239 242 244 248 249 250 252